Location: Nicosia
(35.1670°N, 33.3670°E)
Time: 00:14:01
(UTC+02:00)

Envisat - Pass Details

Date: 28 September 2023
Orbit: 762 x 764 km, 98.3° (Epoch: 01 December)

Event Time Altitude Azimuth Distance (km) Brightness Sun altitude
Rises 03:56:20 0° 19° (NNE) 3,236 6.8 -33.1°
Reaches altitude 10° 03:58:44 10° 26° (NNE) 2,306 6.0 -32.7°
Enters shadow 04:03:23 46° 91° (E) 1,015 3.8 -31.8°
